ANA1654 RJSK-RJOO

Flight info

Callsign ANA1654
Flight time 1h 23m
Altitude 22000
Route GTC Y12 KOHWA Y546 AGPUK MIRAI ABENO IKOMA
Aircraft DH8D/M-SDE2E3FGRY/H

Departure

Time 2026-04-27 11:30
Airport Akita Airport (RJSK)

Arrival

Time 2026-04-27 12:54
Airport Osaka Itami International Airport (RJOO)
Time Latitude Longitude Altitude Speed Heading
2026-04-27 11:23 39.61237 140.22133 323 ft 0 kts 187°
2026-04-27 11:25 39.61235 140.22111 323 ft 5 kts 296°
2026-04-27 11:25 39.61292 140.22098 321 ft 11 kts
2026-04-27 11:26 39.61364 140.22107 318 ft 8 kts 27°
2026-04-27 11:26 39.61371 140.22189 318 ft 10 kts 97°
2026-04-27 11:26 39.61359 140.22295 319 ft 13 kts 99°
2026-04-27 11:26 39.61345 140.22423 317 ft 15 kts 95°
2026-04-27 11:27 39.61332 140.22578 314 ft 18 kts 96°
2026-04-27 11:27 39.61311 140.22757 312 ft 19 kts 100°
2026-04-27 11:27 39.61300 140.22922 312 ft 18 kts 94°
2026-04-27 11:27 39.61287 140.23086 314 ft 18 kts 96°
2026-04-27 11:28 39.61285 140.23250 315 ft 17 kts 61°
2026-04-27 11:28 39.61387 140.23296 316 ft 15 kts
2026-04-27 11:28 39.61445 140.23210 316 ft 11 kts 276°
2026-04-27 11:28 39.61447 140.23180 316 ft 0 kts 276°
2026-04-27 11:29 39.61451 140.23141 316 ft 13 kts 277°
2026-04-27 11:29 39.61476 140.22864 315 ft 40 kts 276°
2026-04-27 11:29 39.61503 140.22556 318 ft 8 kts 277°
2026-04-27 11:30 39.61526 140.22334 319 ft 59 kts 275°
2026-04-27 11:30 39.61615 140.21384 315 ft 140 kts 278°
2026-04-27 11:30 39.61796 140.20048 803 ft 155 kts 279°
2026-04-27 11:30 39.62027 140.18533 1291 ft 182 kts 281°
2026-04-27 11:31 39.62130 140.16891 1866 ft 199 kts 267°
2026-04-27 11:31 39.61543 140.15413 3003 ft 187 kts 220°
2026-04-27 11:31 39.60400 140.14682 3975 ft 188 kts 208°
2026-04-27 11:31 39.59155 140.13905 4566 ft 206 kts 212°
2026-04-27 11:32 39.57898 140.13010 5344 ft 212 kts 215°
2026-04-27 11:32 39.56694 140.12079 6148 ft 214 kts 217°
2026-04-27 11:32 39.55391 140.11008 6651 ft 235 kts 218°
2026-04-27 11:32 39.53977 140.09790 7159 ft 249 kts 219°
2026-04-27 11:33 39.52508 140.08496 7822 ft 255 kts 219°
2026-04-27 11:33 39.51039 140.07178 8493 ft 260 kts 220°
2026-04-27 11:33 39.49547 140.05821 9170 ft 265 kts 220°
2026-04-27 11:33 39.48030 140.04428 9864 ft 268 kts 220°
2026-04-27 11:34 39.46453 140.02965 10201 ft 285 kts 220°
2026-04-27 11:34 39.44845 140.01466 10739 ft 291 kts 220°
2026-04-27 11:34 39.43189 139.99919 11202 ft 298 kts 220°
2026-04-27 11:34 39.41436 139.98271 11278 ft 317 kts 220°
2026-04-27 11:35 39.39615 139.96567 11866 ft 315 kts 220°
2026-04-27 11:35 39.37813 139.94878 12312 ft 318 kts 220°
2026-04-27 11:35 39.36013 139.93192 12770 ft 321 kts 220°
2026-04-27 11:35 39.34167 139.91461 13231 ft 324 kts 220°
2026-04-27 11:36 39.32358 139.89764 13728 ft 325 kts 220°
2026-04-27 11:36 39.30516 139.88036 14245 ft 325 kts 220°
2026-04-27 11:36 39.28660 139.86295 14630 ft 330 kts 220°
2026-04-27 11:36 39.26800 139.84551 15003 ft 335 kts 220°
2026-04-27 11:37 39.24915 139.82785 15535 ft 335 kts 220°
2026-04-27 11:37 39.23014 139.81004 16082 ft 333 kts 220°
2026-04-27 11:37 39.21075 139.79190 16420 ft 338 kts 220°
2026-04-27 11:37 39.19090 139.77489 16863 ft 344 kts 212°
2026-04-27 11:38 39.16877 139.76231 17399 ft 344 kts 206°
2026-04-27 11:38 39.14607 139.75015 17852 ft 345 kts 206°
2026-04-27 11:38 39.12379 139.73820 18169 ft 350 kts 206°
2026-04-27 11:38 39.10101 139.72595 18615 ft 352 kts 207°
2026-04-27 11:39 39.07849 139.71381 19145 ft 349 kts 207°
2026-04-27 11:39 39.05547 139.70136 19544 ft 351 kts 207°
2026-04-27 11:39 39.03306 139.68922 19870 ft 355 kts 207°
2026-04-27 11:39 39.01020 139.67685 20353 ft 354 kts 207°
2026-04-27 11:40 38.98732 139.66446 20769 ft 353 kts 207°
2026-04-27 11:40 38.96494 139.65237 21259 ft 347 kts 208°
2026-04-27 11:40 38.94256 139.64031 21370 ft 344 kts 208°
2026-04-27 11:40 38.92043 139.62834 21379 ft 344 kts 208°
2026-04-27 11:41 38.89918 139.61687 21492 ft 341 kts 208°
2026-04-27 11:41 38.87669 139.60474 21617 ft 335 kts 208°
2026-04-27 11:41 38.85463 139.59283 21740 ft 333 kts 208°
2026-04-27 11:41 38.83330 139.58130 21869 ft 331 kts 208°
2026-04-27 11:42 38.81192 139.56975 21912 ft 332 kts 208°
2026-04-27 11:42 38.79036 139.55806 21928 ft 337 kts 208°
2026-04-27 11:42 38.76851 139.54623 21931 ft 342 kts 208°
2026-04-27 11:42 38.74657 139.53438 21933 ft 345 kts 208°
2026-04-27 11:43 38.72412 139.52225 21928 ft 348 kts 208°
2026-04-27 11:43 38.70419 139.51150 21923 ft 349 kts 208°
2026-04-27 11:43 38.68209 139.49962 21921 ft 350 kts 208°
2026-04-27 11:43 38.65938 139.48740 21927 ft 352 kts 208°
2026-04-27 11:44 38.63652 139.47511 21925 ft 353 kts 208°
2026-04-27 11:44 38.61387 139.46294 21922 ft 353 kts 208°
2026-04-27 11:44 38.59111 139.45075 21922 ft 349 kts 208°
2026-04-27 11:44 38.56881 139.43883 21917 ft 346 kts 208°
2026-04-27 11:45 38.54658 139.42693 21921 ft 343 kts 208°
2026-04-27 11:45 38.53171 139.41898 21927 ft 342 kts 209°
2026-04-27 11:45 38.50247 139.40332 21929 ft 340 kts 208°
2026-04-27 11:45 38.48087 139.39177 21925 ft 339 kts 208°
2026-04-27 11:46 38.45908 139.38011 21923 ft 338 kts 209°
2026-04-27 11:46 38.43736 139.36852 21919 ft 337 kts 209°
2026-04-27 11:46 38.41574 139.35696 21922 ft 337 kts 209°
2026-04-27 11:46 38.39357 139.34512 21925 ft 337 kts 208°
2026-04-27 11:47 38.37218 139.33371 21932 ft 337 kts 208°
2026-04-27 11:47 38.35021 139.32199 21928 ft 337 kts 208°
2026-04-27 11:47 38.32860 139.31049 21928 ft 337 kts 208°
2026-04-27 11:47 38.30709 139.29903 21923 ft 337 kts 208°
2026-04-27 11:48 38.28519 139.28737 21927 ft 337 kts 208°
2026-04-27 11:48 38.26362 139.27591 21927 ft 337 kts 208°
2026-04-27 11:48 38.24200 139.26442 21927 ft 337 kts 208°
2026-04-27 11:48 38.22039 139.25295 21935 ft 337 kts 208°
2026-04-27 11:49 38.19873 139.24146 21935 ft 337 kts 208°
2026-04-27 11:49 38.17696 139.22990 21936 ft 337 kts 208°
2026-04-27 11:49 38.15517 139.21835 21932 ft 337 kts 208°
2026-04-27 11:49 38.13348 139.20688 21936 ft 338 kts 209°
2026-04-27 11:50 38.11152 139.19525 21934 ft 337 kts 208°
2026-04-27 11:50 38.08984 139.18379 21934 ft 337 kts 209°
2026-04-27 11:50 38.06826 139.17239 21934 ft 337 kts 209°
2026-04-27 11:50 38.04638 139.16083 21941 ft 336 kts 209°
2026-04-27 11:51 38.02472 139.14940 21944 ft 336 kts 209°
2026-04-27 11:51 38.00305 139.13796 21942 ft 336 kts 209°
2026-04-27 11:51 37.95982 139.11500 21938 ft 335 kts 210°
2026-04-27 11:52 37.93890 139.10158 21937 ft 332 kts 214°
2026-04-27 11:52 37.91869 139.08777 21932 ft 332 kts 215°
2026-04-27 11:52 37.89831 139.07382 21934 ft 332 kts 215°
2026-04-27 11:52 37.87753 139.05965 21937 ft 331 kts 215°
2026-04-27 11:53 37.85719 139.04578 21944 ft 331 kts 215°
2026-04-27 11:53 37.83731 139.03224 21948 ft 331 kts 215°
2026-04-27 11:53 37.82108 139.02121 21945 ft 330 kts 215°
2026-04-27 11:53 37.80053 139.00726 21952 ft 331 kts 214°
2026-04-27 11:54 37.78024 138.99348 21954 ft 331 kts 215°
2026-04-27 11:54 37.76001 138.97978 21958 ft 331 kts 214°
2026-04-27 11:54 37.73954 138.96593 21953 ft 332 kts 215°
2026-04-27 11:54 37.71897 138.95201 21960 ft 332 kts 215°
2026-04-27 11:55 37.69846 138.93814 21959 ft 332 kts 214°
2026-04-27 11:55 37.67829 138.92453 21942 ft 332 kts 215°
2026-04-27 11:55 37.65785 138.91074 21967 ft 332 kts 215°
2026-04-27 11:55 37.63743 138.89697 21966 ft 332 kts 215°
2026-04-27 11:56 37.61710 138.88327 21963 ft 332 kts 215°
2026-04-27 11:56 37.59663 138.86948 21967 ft 332 kts 215°
2026-04-27 11:56 37.57610 138.85567 21971 ft 332 kts 215°
2026-04-27 11:56 37.55572 138.84195 21963 ft 332 kts 215°
2026-04-27 11:57 37.53531 138.82823 21971 ft 332 kts 215°
2026-04-27 11:57 37.51483 138.81447 21971 ft 331 kts 215°
2026-04-27 11:57 37.49449 138.80081 21972 ft 331 kts 215°
2026-04-27 11:57 37.47408 138.78713 21986 ft 330 kts 215°
2026-04-27 11:58 37.45363 138.77341 21973 ft 331 kts 215°
2026-04-27 11:58 37.43329 138.75978 21957 ft 330 kts 215°
2026-04-27 11:58 37.41299 138.74620 21977 ft 329 kts 215°
2026-04-27 11:58 37.39263 138.73256 21983 ft 330 kts 215°
2026-04-27 11:59 37.37231 138.71895 21969 ft 330 kts 215°
2026-04-27 11:59 37.35205 138.70540 21971 ft 330 kts 215°
2026-04-27 11:59 37.33160 138.69173 21988 ft 329 kts 215°
2026-04-27 11:59 37.31132 138.67818 21975 ft 330 kts 216°
2026-04-27 12:00 37.29111 138.66469 21981 ft 330 kts 215°
2026-04-27 12:00 37.27080 138.65114 21987 ft 330 kts 215°
2026-04-27 12:00 37.25035 138.63751 21979 ft 330 kts 216°
2026-04-27 12:00 37.22999 138.62395 21972 ft 330 kts 215°
2026-04-27 12:01 37.20973 138.61044 21986 ft 330 kts 215°
2026-04-27 12:01 37.18945 138.59694 21974 ft 330 kts 216°
2026-04-27 12:01 37.16915 138.58333 21976 ft 330 kts 216°
2026-04-27 12:01 37.14891 138.56976 21976 ft 330 kts 216°
2026-04-27 12:02 37.12848 138.55611 21977 ft 330 kts 216°
2026-04-27 12:02 37.10832 138.54268 21978 ft 330 kts 216°
2026-04-27 12:02 37.08791 138.52908 21981 ft 330 kts 216°
2026-04-27 12:02 37.06768 138.51564 21986 ft 330 kts 216°
2026-04-27 12:03 37.04748 138.50223 21992 ft 329 kts 216°
2026-04-27 12:03 37.02720 138.48879 22000 ft 329 kts 216°
2026-04-27 12:03 37.00686 138.47531 21994 ft 329 kts 216°
2026-04-27 12:03 36.98648 138.46182 21986 ft 328 kts 216°
2026-04-27 12:04 36.96649 138.44861 21986 ft 328 kts 216°
2026-04-27 12:04 36.94616 138.43517 21986 ft 328 kts 216°
2026-04-27 12:04 36.92592 138.42180 21987 ft 328 kts 216°
2026-04-27 12:04 36.90583 138.40854 21993 ft 327 kts 216°
2026-04-27 12:05 36.88538 138.39506 21977 ft 326 kts 216°
2026-04-27 12:05 36.86618 138.38242 21982 ft 325 kts 216°
2026-04-27 12:05 36.84573 138.36894 21983 ft 324 kts 217°
2026-04-27 12:05 36.82553 138.35562 21988 ft 325 kts 216°
2026-04-27 12:06 36.80595 138.34274 21992 ft 325 kts 216°
2026-04-27 12:06 36.78648 138.32993 21987 ft 326 kts 216°
2026-04-27 12:06 36.76629 138.31665 21978 ft 327 kts 216°
2026-04-27 12:06 36.74619 138.30344 21978 ft 327 kts 215°
2026-04-27 12:07 36.72601 138.29019 21976 ft 328 kts 216°
2026-04-27 12:07 36.70570 138.27687 21980 ft 328 kts 216°
2026-04-27 12:07 36.68564 138.26372 21979 ft 329 kts 216°
2026-04-27 12:07 36.66539 138.25046 21979 ft 329 kts 216°
2026-04-27 12:08 36.64491 138.23704 21984 ft 329 kts 216°
2026-04-27 12:08 36.62449 138.22368 21985 ft 329 kts 216°
2026-04-27 12:08 36.60426 138.21045 21980 ft 330 kts 216°
2026-04-27 12:08 36.58387 138.19711 21970 ft 330 kts 216°
2026-04-27 12:09 36.56344 138.18378 21967 ft 330 kts 216°
2026-04-27 12:09 36.54310 138.17050 21972 ft 330 kts 216°
2026-04-27 12:09 36.52289 138.15732 21969 ft 330 kts 216°
2026-04-27 12:09 36.50233 138.14391 21972 ft 330 kts 216°
2026-04-27 12:10 36.48193 138.13062 21969 ft 329 kts 216°
2026-04-27 12:10 36.46279 138.11816 21965 ft 329 kts 216°
2026-04-27 12:10 36.44264 138.10504 21968 ft 329 kts 216°
2026-04-27 12:10 36.42199 138.09161 21971 ft 329 kts 216°
2026-04-27 12:11 36.40181 138.07849 21967 ft 328 kts 216°
2026-04-27 12:11 36.38138 138.06522 21967 ft 328 kts 215°
2026-04-27 12:11 36.36110 138.05205 21971 ft 328 kts 215°
2026-04-27 12:11 36.34080 138.03888 21973 ft 327 kts 216°
2026-04-27 12:12 36.32027 138.02556 21970 ft 327 kts 216°
2026-04-27 12:12 36.29995 138.01239 21969 ft 327 kts 216°
2026-04-27 12:12 36.27976 137.99931 21975 ft 326 kts 216°
2026-04-27 12:12 36.26205 137.98785 21978 ft 327 kts 216°
2026-04-27 12:13 36.24185 137.97478 21973 ft 327 kts 216°
2026-04-27 12:13 36.22144 137.96158 21970 ft 327 kts 216°
2026-04-27 12:13 36.20123 137.94852 21965 ft 326 kts 216°
2026-04-27 12:13 36.18187 137.93602 21964 ft 325 kts 216°
2026-04-27 12:14 36.16456 137.92484 21964 ft 325 kts 216°
2026-04-27 12:14 36.14456 137.91183 21966 ft 323 kts 216°
2026-04-27 12:14 36.12452 137.89830 21961 ft 323 kts 217°
2026-04-27 12:14 36.10474 137.88486 21956 ft 322 kts 217°
2026-04-27 12:15 36.08502 137.87148 21962 ft 322 kts 217°
2026-04-27 12:15 36.06509 137.85799 21971 ft 322 kts 217°
2026-04-27 12:15 36.04534 137.84462 21969 ft 321 kts 217°
2026-04-27 12:15 36.02585 137.83145 21971 ft 321 kts 217°
2026-04-27 12:16 36.00632 137.81827 21972 ft 321 kts 217°
2026-04-27 12:16 35.98642 137.80486 21984 ft 320 kts 217°
2026-04-27 12:16 35.96683 137.79166 21986 ft 320 kts 217°
2026-04-27 12:16 35.94720 137.77843 21993 ft 320 kts 218°
2026-04-27 12:17 35.92740 137.76509 21983 ft 321 kts 217°
2026-04-27 12:17 35.90774 137.75188 21984 ft 321 kts 217°
2026-04-27 12:17 35.88876 137.73914 21987 ft 320 kts 218°
2026-04-27 12:17 35.87052 137.72688 21984 ft 319 kts 218°
2026-04-27 12:18 35.85013 137.71324 21981 ft 316 kts 218°
2026-04-27 12:18 35.83032 137.69995 21978 ft 316 kts 218°
2026-04-27 12:18 35.81084 137.68686 21980 ft 316 kts 218°
2026-04-27 12:18 35.79131 137.67378 21989 ft 317 kts 218°
2026-04-27 12:19 35.77198 137.66084 21998 ft 317 kts 218°
2026-04-27 12:19 35.75227 137.64766 21987 ft 317 kts 218°
2026-04-27 12:19 35.73284 137.63466 21987 ft 318 kts 218°
2026-04-27 12:19 35.71339 137.62166 21990 ft 318 kts 218°
2026-04-27 12:20 35.69405 137.60875 21975 ft 319 kts 218°
2026-04-27 12:20 35.67430 137.59557 21975 ft 319 kts 218°
2026-04-27 12:20 35.65496 137.58267 21959 ft 319 kts 218°
2026-04-27 12:20 35.63521 137.56952 21970 ft 319 kts 218°
2026-04-27 12:21 35.61558 137.55644 21972 ft 318 kts 218°
2026-04-27 12:21 35.59591 137.54335 21965 ft 318 kts 218°
2026-04-27 12:21 35.57639 137.53036 21960 ft 318 kts 218°
2026-04-27 12:21 35.55675 137.51762 21961 ft 320 kts 217°
2026-04-27 12:22 35.53673 137.50528 21969 ft 320 kts 216°
2026-04-27 12:22 35.51649 137.49283 21967 ft 320 kts 217°
2026-04-27 12:22 35.49656 137.48056 21965 ft 319 kts 217°
2026-04-27 12:22 35.47675 137.46823 21971 ft 318 kts 218°
2026-04-27 12:23 35.45709 137.45514 21969 ft 317 kts 219°
2026-04-27 12:23 35.43741 137.44188 21972 ft 317 kts 219°
2026-04-27 12:23 35.41818 137.42896 21967 ft 317 kts 219°
2026-04-27 12:23 35.39879 137.41594 21961 ft 318 kts 219°
2026-04-27 12:24 35.37928 137.40288 21961 ft 318 kts 219°
2026-04-27 12:24 35.35972 137.38980 21949 ft 318 kts 219°
2026-04-27 12:24 35.34004 137.37668 21954 ft 318 kts 219°
2026-04-27 12:24 35.32053 137.36366 21966 ft 318 kts 219°
2026-04-27 12:25 35.30082 137.35054 21955 ft 318 kts 219°
2026-04-27 12:25 35.28124 137.33751 21956 ft 318 kts 219°
2026-04-27 12:25 35.26128 137.32423 21955 ft 319 kts 219°
2026-04-27 12:25 35.24412 137.31285 21949 ft 319 kts 219°
2026-04-27 12:26 35.22812 137.30225 21946 ft 317 kts 219°
2026-04-27 12:26 35.20820 137.28902 21940 ft 315 kts 219°
2026-04-27 12:26 35.18900 137.27631 21943 ft 316 kts 219°
2026-04-27 12:26 35.16922 137.26318 21945 ft 317 kts 219°
2026-04-27 12:27 35.14975 137.25027 21946 ft 318 kts 219°
2026-04-27 12:27 35.12997 137.23717 21935 ft 318 kts 219°
2026-04-27 12:27 35.11039 137.22421 21929 ft 319 kts 219°
2026-04-27 12:27 35.09075 137.21123 21925 ft 319 kts 219°
2026-04-27 12:28 35.07104 137.19821 21933 ft 319 kts 219°
2026-04-27 12:28 35.05115 137.18507 21926 ft 320 kts 219°
2026-04-27 12:28 35.03151 137.17210 21937 ft 320 kts 219°
2026-04-27 12:28 35.01158 137.15897 21947 ft 320 kts 219°
2026-04-27 12:29 34.99181 137.14594 21934 ft 320 kts 219°
2026-04-27 12:29 34.97223 137.13303 21927 ft 319 kts 219°
2026-04-27 12:29 34.95271 137.12018 21926 ft 319 kts 219°
2026-04-27 12:29 34.93307 137.10725 21929 ft 319 kts 219°
2026-04-27 12:30 34.91353 137.09439 21927 ft 319 kts 219°
2026-04-27 12:30 34.89379 137.08142 21932 ft 319 kts 220°
2026-04-27 12:30 34.87441 137.06869 21936 ft 316 kts 219°
2026-04-27 12:30 34.85495 137.05592 21929 ft 316 kts 219°
2026-04-27 12:31 34.83515 137.04291 21926 ft 317 kts 219°
2026-04-27 12:31 34.81556 137.03005 21925 ft 317 kts 220°
2026-04-27 12:31 34.79628 137.01741 21924 ft 317 kts 220°
2026-04-27 12:31 34.77662 137.00452 21937 ft 317 kts 219°
2026-04-27 12:32 34.75694 136.99162 21931 ft 317 kts 220°
2026-04-27 12:32 34.73779 136.97910 21928 ft 317 kts 219°
2026-04-27 12:32 34.71851 136.96613 21923 ft 312 kts 223°
2026-04-27 12:32 34.70409 136.94798 21932 ft 284 kts 248°
2026-04-27 12:33 34.69656 136.92616 21931 ft 278 kts 255°
2026-04-27 12:33 34.68981 136.90395 21935 ft 275 kts 255°
2026-04-27 12:33 34.68328 136.88208 21925 ft 272 kts 255°
2026-04-27 12:33 34.67682 136.86028 21724 ft 273 kts 256°
2026-04-27 12:34 34.67031 136.83817 21421 ft 278 kts 256°
2026-04-27 12:34 34.66375 136.81578 21077 ft 283 kts 255°
2026-04-27 12:34 34.65709 136.79314 20711 ft 285 kts 255°
2026-04-27 12:34 34.65042 136.77043 20348 ft 286 kts 255°
2026-04-27 12:35 34.64374 136.74770 19971 ft 288 kts 255°
2026-04-27 12:35 34.63701 136.72475 19595 ft 290 kts 255°
2026-04-27 12:35 34.63019 136.70154 19224 ft 293 kts 254°
2026-04-27 12:35 34.62322 136.67781 18833 ft 295 kts 254°
2026-04-27 12:36 34.61635 136.65442 18454 ft 299 kts 254°
2026-04-27 12:36 34.60932 136.63046 18058 ft 304 kts 253°
2026-04-27 12:36 34.60216 136.60603 17664 ft 311 kts 253°
2026-04-27 12:36 34.59480 136.58104 17249 ft 311 kts 253°
2026-04-27 12:37 34.58749 136.55626 16842 ft 312 kts 253°
2026-04-27 12:37 34.58010 136.53120 16428 ft 313 kts 253°
2026-04-27 12:37 34.57288 136.50678 16021 ft 310 kts 253°
2026-04-27 12:37 34.56558 136.48213 15622 ft 306 kts 252°
2026-04-27 12:38 34.55837 136.45779 15234 ft 304 kts 253°
2026-04-27 12:38 34.55122 136.43367 14834 ft 302 kts 253°
2026-04-27 12:38 34.54411 136.40970 14445 ft 301 kts 253°
2026-04-27 12:38 34.53713 136.38615 14059 ft 300 kts 252°
2026-04-27 12:39 34.53002 136.36218 13674 ft 299 kts 252°
2026-04-27 12:39 34.52294 136.33838 13292 ft 298 kts 252°
2026-04-27 12:39 34.51639 136.31421 12917 ft 296 kts 257°
2026-04-27 12:39 34.51268 136.28952 12563 ft 294 kts 262°
2026-04-27 12:40 34.50959 136.26504 12214 ft 293 kts 262°
2026-04-27 12:40 34.50648 136.24037 11879 ft 292 kts 262°
2026-04-27 12:40 34.50341 136.21609 11540 ft 292 kts 262°
2026-04-27 12:40 34.50029 136.19174 11203 ft 288 kts 262°
2026-04-27 12:41 34.49715 136.16760 10863 ft 281 kts 263°
2026-04-27 12:41 34.49412 136.14435 10539 ft 276 kts 263°
2026-04-27 12:41 34.49113 136.12151 10219 ft 271 kts 262°
2026-04-27 12:41 34.48819 136.09901 9906 ft 267 kts 263°
2026-04-27 12:42 34.48741 136.07651 9573 ft 262 kts 281°
2026-04-27 12:42 34.49256 136.05537 9287 ft 258 kts 290°
2026-04-27 12:42 34.49845 136.03481 8989 ft 255 kts 290°
2026-04-27 12:42 34.50433 136.01436 8696 ft 253 kts 290°
2026-04-27 12:43 34.50990 135.99497 8417 ft 252 kts 290°
2026-04-27 12:43 34.51576 135.97444 8125 ft 253 kts 290°
2026-04-27 12:43 34.52146 135.95441 7828 ft 250 kts 290°
2026-04-27 12:43 34.52705 135.93462 7533 ft 243 kts 290°
2026-04-27 12:44 34.53228 135.91602 7262 ft 236 kts 290°
2026-04-27 12:44 34.53769 135.89681 6980 ft 230 kts 291°
2026-04-27 12:44 34.54283 135.87833 6711 ft 225 kts 291°
2026-04-27 12:44 34.54779 135.86041 6450 ft 221 kts 291°
2026-04-27 12:45 34.55268 135.84283 6155 ft 218 kts 291°
2026-04-27 12:45 34.55754 135.82530 5850 ft 216 kts 291°
2026-04-27 12:45 34.56239 135.80772 5526 ft 211 kts 290°
2026-04-27 12:45 34.56699 135.79079 5213 ft 204 kts 290°
2026-04-27 12:46 34.57140 135.77422 4900 ft 200 kts 290°
2026-04-27 12:46 34.57543 135.75827 4603 ft 199 kts 288°
2026-04-27 12:46 34.57929 135.74170 4294 ft 200 kts 288°
2026-04-27 12:46 34.58318 135.72525 3980 ft 201 kts 288°
2026-04-27 12:47 34.58697 135.70938 3698 ft 201 kts 288°
2026-04-27 12:47 34.59088 135.69308 3559 ft 195 kts 288°
2026-04-27 12:47 34.59492 135.67749 3506 ft 189 kts 292°
2026-04-27 12:47 34.60110 135.66370 3498 ft 184 kts 307°
2026-04-27 12:48 34.60923 135.65163 3468 ft 182 kts 312°
2026-04-27 12:48 34.61742 135.64041 3459 ft 180 kts 314°
2026-04-27 12:48 34.62610 135.62920 3464 ft 178 kts 315°
2026-04-27 12:48 34.63485 135.61835 3470 ft 181 kts 316°
2026-04-27 12:49 34.64400 135.60718 3472 ft 186 kts 316°
2026-04-27 12:49 34.65329 135.59589 3317 ft 187 kts 316°
2026-04-27 12:49 34.66231 135.58491 3101 ft 178 kts 315°
2026-04-27 12:49 34.67079 135.57460 2803 ft 171 kts 316°
2026-04-27 12:50 34.67901 135.56465 2536 ft 163 kts 316°
2026-04-27 12:50 34.68700 135.55525 2359 ft 149 kts 318°
2026-04-27 12:50 34.69481 135.54765 2158 ft 143 kts 328°
2026-04-27 12:50 34.70240 135.53938 1816 ft 140 kts 320°
2026-04-27 12:51 34.70981 135.53232 1569 ft 137 kts 326°
2026-04-27 12:51 34.71724 135.52412 1228 ft 150 kts 312°
2026-04-27 12:51 34.72371 135.51469 1191 ft 133 kts 315°
2026-04-27 12:51 34.72995 135.50700 1048 ft 122 kts 318°
2026-04-27 12:52 34.73614 135.50014 948 ft 120 kts 321°
2026-04-27 12:52 34.74267 135.49333 1059 ft 127 kts 323°
2026-04-27 12:52 34.74963 135.48592 1148 ft 135 kts 317°
2026-04-27 12:52 34.75630 135.47740 1039 ft 139 kts 316°
2026-04-27 12:53 34.76939 135.46025 422 ft 132 kts 314°
2026-04-27 12:53 34.77576 135.45235 249 ft 125 kts 316°
2026-04-27 12:53 34.78201 135.44498 119 ft 125 kts 316°
2026-04-27 12:54 34.78809 135.43745 39 ft 105 kts 315°
2026-04-27 12:54 34.79187 135.43280 55 ft 51 kts 315°
2026-04-27 12:54 34.79310 135.43135 59 ft 13 kts 320°
2026-04-27 12:54 34.79390 135.43167 61 ft 13 kts 68°
2026-04-27 12:55 34.79353 135.43262 61 ft 18 kts 136°
2026-04-27 12:55 34.79240 135.43396 55 ft 21 kts 136°
2026-04-27 12:55 34.79133 135.43523 49 ft 21 kts 134°
2026-04-27 12:55 34.79020 135.43658 45 ft 23 kts 135°
2026-04-27 12:56 34.78894 135.43813 40 ft 23 kts 133°
2026-04-27 12:56 34.78780 135.43951 36 ft 23 kts 135°
2026-04-27 12:56 34.78692 135.44057 37 ft 11 kts 135°
2026-04-27 12:56 34.78632 135.44128 39 ft 13 kts 132°
2026-04-27 12:57 34.78613 135.44183 41 ft 0 kts 77°
2026-04-27 12:57 34.78623 135.44225 42 ft 10 kts 74°
2026-04-27 12:57 34.78602 135.44299 44 ft 10 kts 131°
2026-04-27 12:58 34.78582 135.44359 46 ft 6 kts 54°
2026-04-27 12:58 34.78621 135.44400 48 ft 7 kts
2026-04-27 12:58 34.78654 135.44397 49 ft 8 kts 355°
2026-04-27 12:58 34.78709 135.44386 50 ft 7 kts 352°
2026-04-27 12:59 34.78722 135.44385 51 ft 0 kts 353°